DW9245 Weather Reports


Display with metric or nautical units.
time (UTC)temp
F
wind
direction
speed
MPH
gust
MPH
rain 1hr
in
rain 24hr
in
rain mn
in
humidity
%
barometer
mb
20191120015009 54 225 11.0 0.0 0.00 0.00 0.00 57 1022.5
20191120013008 55 0 6.0 0.0 0.00 0.00 0.00 55 1022.6
20191120012009 53 0 9.0 0.0 0.00 0.00 0.00 56 1022.6
20191120011008 52 0 10.0 0.0 0.00 0.00 0.00 58 1022.6
20191120010010 52 0 6.0 0.0 0.00 0.00 0.00 60 1022.7
20191120005008 52 0 10.0 0.0 0.00 0.00 0.00 60 1022.6
20191120004008 52 0 5.0 0.0 0.00 0.00 0.00 60 1022.5
20191120003008 51 0 9.0 0.0 0.00 0.00 0.00 60 1022.4
20191120002008 52 90 7.0 0.0 0.00 0.00 0.00 60 1022.4
20191120001008 52 0 9.0 0.0 0.00 0.00 0.00 59 1022.3
20191119235008 52 0 6.0 0.0 0.00 0.00 0.00 61 1022.2
20191119234008 51 0 6.0 0.0 0.00 0.00 0.00 61 1022.1
20191119230012 50 0 0.0 0.0 0.00 0.00 0.00 64 1021.9
20191119215009 48 68 5.0 0.0 0.00 0.00 0.00 65 1021.1
20191119214008 47 45 2.0 0.0 0.00 0.00 0.00 66 1021.1
20191119213008 47 180 2.0 0.0 0.00 0.00 0.00 66 1021.1
20191119210010 47 225 4.0 0.0 0.00 0.00 0.00 66 1021.0
20191119203008 46 135 4.0 0.0 0.00 0.00 0.00 67 1020.7
20191119202008 46 135 3.0 0.0 0.00 0.00 0.00 66 1020.6
20191119201008 46 180 0.0 0.0 0.00 0.00 0.00 66 1020.5
20191119200012 47 180 2.0 0.0 0.00 0.00 0.00 66 1020.5
20191119195008 46 225 3.0 0.0 0.00 0.00 0.00 66 1020.5
20191119190009 46 68 3.0 0.0 0.00 0.00 0.00 69 1019.9
20191119184008 45 225 2.0 0.0 0.00 0.00 0.00 70 1019.7
20191119182008 46 0 4.0 0.0 0.00 0.00 0.00 68 1019.8
20191119181009 47 0 5.0 0.0 0.00 0.00 0.00 68 1019.8
20191119180008 47 0 5.0 0.0 0.00 0.00 0.00 68 1020.0
20191119171008 47 225 5.0 0.0 0.00 0.00 0.00 66 1020.2
20191119161009 48 225 7.0 0.0 0.00 0.00 0.00 68 1020.3
20191119155008 49 0 4.0 0.0 0.00 0.00 0.00 66 1020.3
20191119153008 49 0 2.0 0.0 0.00 0.00 0.00 67 1019.9
20191119151008 50 0 4.0 0.0 0.00 0.00 0.00 66 1020.2
20191119150008 50 225 4.0 0.0 0.00 0.00 0.00 66 1020.1
20191119145008 50 225 2.0 0.0 0.00 0.00 0.00 66 1020.1
20191119143009 50 225 2.0 0.0 0.00 0.00 0.00 61 1019.8
20191119142009 50 225 5.0 0.0 0.00 0.00 0.00 64 1019.8
20191119141008 50 0 4.0 0.0 0.00 0.00 0.00 63 1019.7
20191119140012 50 0 4.0 0.0 0.00 0.00 0.00 63 1019.5
20191119133008 50 0 5.0 0.0 0.00 0.00 0.00 62 1019.4
20191119132007 49 0 7.0 0.0 0.00 0.00 0.00 62 1019.4
20191119131008 50 0 9.0 0.0 0.00 0.00 0.00 61 1019.3
20191119121008 50 0 6.0 0.0 0.00 0.00 0.00 59 1018.9
20191119113008 51 0 4.0 0.0 0.00 0.00 0.00 56 1018.6
20191119112008 51 225 8.0 0.0 0.00 0.00 0.00 55 1018.5
20191119111007 51 0 7.0 0.0 0.00 0.00 0.00 55 1018.4
20191119110011 51 0 10.0 0.0 0.00 0.00 0.00 55 1018.3
20191119105008 51 0 11.0 0.0 0.00 0.00 0.00 54 1018.1
20191119103009 51 0 6.0 0.0 0.00 0.00 0.00 54 1018.2
20191119101010 52 0 9.0 0.0 0.00 0.00 0.00 53 1017.8
20191119094008 52 0 14.0 0.0 0.00 0.00 0.00 52 1017.5
20191119093011 52 270 16.0 0.0 0.00 0.00 0.00 51 1017.3
20191119092008 53 0 13.0 0.0 0.00 0.00 0.00 50 1017.0
20191119091008 53 0 11.0 0.0 0.00 0.00 0.00 49 1016.9
20191119090008 53 0 14.0 0.0 0.00 0.00 0.00 49 1016.7
20191119085008 53 0 11.0 0.0 0.00 0.00 0.00 49 1016.5
20191119084007 54 0 7.0 0.0 0.00 0.00 0.00 49 1016.1
20191119081008 54 0 15.0 0.0 0.00 0.00 0.00 47 1015.6
20191119075009 55 0 7.0 0.0 0.00 0.00 0.00 47 1015.2
20191119070012 57 225 16.0 0.0 0.00 0.00 0.00 42 1014.8
20191119062008 58 0 11.0 0.0 0.00 0.00 0.00 42 1014.2
20191119061008 58 0 16.0 0.0 0.00 0.00 0.00 42 1014.1
20191119055008 59 0 7.0 0.0 0.00 0.00 0.00 42 1014.1
20191119053009 59 0 15.0 0.0 0.00 0.00 0.00 41 1013.9
20191119050012 61 45 11.0 0.0 0.00 0.00 0.00 41 1013.9
20191119045009 61 0 11.0 0.0 0.00 0.00 0.00 40 1013.8
20191119044008 59 0 9.0 0.0 0.00 0.00 0.00 40 1013.7
20191119033008 59 0 14.0 0.0 0.00 0.00 0.00 47 1014.2
20191119032007 59 0 11.0 0.0 0.00 0.00 0.00 48 1014.4
20191119031008 58 0 14.0 0.0 0.00 0.00 0.00 48 1014.3
20191119030008 60 180 9.0 0.0 0.00 0.00 0.00 45 1014.4
20191119025008 61 0 13.0 0.0 0.00 0.00 0.00 43 1014.6
20191119023009 61 270 14.0 0.0 0.00 0.00 0.00 41 1014.7